CW3224 Weather Reports


time (UTC)temp
F
wind
direction
speed
knots
gust
knots
rain 1hr
in
rain 24hr
in
rain mn
in
humidity
%
barometer
mb
20260905215804 64 301 0.0 0.0 0.06 0.10 0.10 88 1011.1
20260905214802 64 301 0.0 0.0 0.07 0.10 0.10 88 1011.1
20260905213802 64 301 0.0 2.6 0.07 0.09 0.09 87 1011.0
20260905212755 65 301 0.0 2.6 0.06 0.08 0.08 86 1010.8
20260905211756 65 301 0.9 3.5 0.05 0.07 0.07 85 1010.8
20260905210755 67 301 0.9 4.3 0.04 0.06 0.06 83 1010.5
20260905205755 68 10 0.0 4.3 0.02 0.04 0.04 82 1010.2
20260905204756 69 54 0.0 0.0 0.01 0.03 0.03 81 1010.2
20260905203755 69 54 0.0 0.0 0.00 0.02 0.02 78 1010.0
20260905202756 69 123 0.0 2.6 0.00 0.02 0.02 79 1009.7
20260905201755 69 198 0.0 3.5 0.00 0.02 0.02 80 1009.7
20260905200755 69 90 0.0 0.9 0.00 0.02 0.02 81 1009.7
20260905195755 69 86 0.0 0.0 0.00 0.02 0.02 79 1009.7
20260905194755 69 86 0.0 2.6 0.00 0.02 0.02 79 1009.7
20260905194226 69 147 0.0 2.6 0.00 0.02 0.02 79 1009.7
20260905192750 69 170 0.9 3.5 0.00 0.02 0.02 79 1009.7
20260905192714 69 112 0.9 2.6 0.00 0.02 0.02 80 1009.7
20260905190748 69 119 1.7 7.0 0.00 0.02 0.02 79 1009.7
20260905190721 69 38 0.0 2.6 0.01 0.02 0.02 82 1009.7
20260905185225 69 55 0.0 0.9 0.02 0.02 0.02 82 1009.7
20260905183743 69 85 0.9 4.3 0.02 0.02 0.02 82 1009.8
20260905182743 69 152 0.0 0.0 0.02 0.02 0.02 84 1009.9
20260905181743 70 133 0.0 0.0 0.02 0.02 0.02 81 1009.9
20260905180743 71 133 0.0 0.0 0.02 0.02 0.02 78 1009.8
20260905175742 71 133 0.0 0.0 0.01 0.01 0.01 74 1009.7
20260905174744 71 133 0.0 1.7 0.00 0.00 0.00 72 1009.7
20260905173743 71 47 0.0 1.7 0.00 0.00 0.00 73 1009.7
20260905172743 72 44 0.0 0.9 0.00 0.00 0.00 73 1009.5
20260905171744 72 12 0.0 2.6 0.00 0.00 0.00 72 1009.5
20260905170734 72 355 0.0 0.0 0.00 0.00 0.00 77 1009.6
20260905165734 71 43 0.0 0.0 0.00 0.00 0.00 76 1009.7
20260905164733 71 39 0.0 0.0 0.00 0.00 0.00 76 1009.7
20260905163733 71 90 0.0 0.0 0.00 0.00 0.00 75 1009.6
20260905162733 71 90 0.0 0.0 0.00 0.00 0.00 76 1009.7
20260905161735 71 0 0.0 0.0 0.00 0.00 0.00 76 1009.7
20260905160724 72 40 0.0 4.3 0.00 0.00 0.00 74 1009.7
20260905155725 72 12 0.0 3.5 0.00 0.00 0.00 76 1009.7
20260905155207 71 63 0.0 3.5 0.00 0.00 0.00 78 1009.7
20260905154209 71 16 0.0 2.6 0.00 0.00 0.00 77 1009.7
20260905152725 70 231 0.0 0.0 0.00 0.00 0.00 79 1009.7
20260905151724 69 358 0.0 2.6 0.00 0.00 0.00 82 1009.7
20260905150713 68 6 0.0 3.5 0.00 0.00 0.00 81 1009.7
20260905145714 68 356 0.0 2.6 0.00 0.00 0.00 83 1009.8
20260905144712 67 359 0.0 1.7 0.00 0.00 0.00 82 1009.8
20260905143712 67 44 0.0 0.0 0.00 0.00 0.00 83 1009.8
20260905142713 67 52 0.0 0.0 0.00 0.00 0.00 84 1009.9
20260905141711 67 5 0.0 0.9 0.00 0.00 0.00 85 1009.9
20260905140712 66 7 0.0 0.0 0.00 0.00 0.00 87 1010.0
20260905135711 65 358 0.0 1.7 0.00 0.00 0.00 89 1009.8
20260905134711 65 95 0.0 0.0 0.00 0.00 0.00 91 1009.8
20260905133710 64 95 0.0 0.0 0.00 0.00 0.00 92 1009.7
20260905132712 64 301 0.0 0.0 0.00 0.00 0.00 92 1009.7
20260905131709 64 301 0.0 0.0 0.00 0.00 0.00 93 1009.7
20260905130708 64 301 0.0 0.0 0.00 0.00 0.00 93 1009.3
20260905125708 63 301 0.0 0.0 0.00 0.00 0.00 94 1009.3
20260905124709 62 301 0.0 0.0 0.00 0.00 0.00 94 1009.3
20260905123709 62 301 0.0 0.0 0.00 0.00 0.00 94 1009.1
20260905122710 61 127 0.0 0.0 0.00 0.00 0.00 94 1009.1
20260905121706 61 301 0.0 0.0 0.00 0.00 0.00 94 1009.1
20260905120708 60 301 0.0 0.0 0.00 0.00 0.00 94 1009.0
20260905115708 59 301 0.0 0.0 0.00 0.00 0.00 93 1008.7
20260905115140 58 127 0.0 0.0 0.00 0.00 0.00 93 1008.7
20260905114147 58 127 0.0 0.0 0.00 0.00 0.00 92 1008.7
20260905113146 57 127 0.0 0.0 0.00 0.00 0.00 92 1008.7
20260905111656 57 127 0.0 0.0 0.00 0.00 0.00 92 1008.7
20260905110657 57 127 0.0 0.0 0.00 0.00 0.00 92 1008.5
20260905105656 57 127 0.0 0.0 0.00 0.00 0.00 92 1008.6
20260905104657 57 127 0.0 0.0 0.00 0.00 0.00 92 1008.6
20260905104607 57 127 0.0 0.0 0.00 0.00 0.00 92 1008.5
20260905102651 57 127 0.0 0.0 0.00 0.00 0.00 92 1008.6
20260905101650 57 127 0.0 0.0 0.00 0.00 0.00 91 1008.6
20260905100650 57 127 0.0 0.0 0.00 0.00 0.00 91 1008.5
20260905100124 57 127 0.0 0.0 0.00 0.00 0.00 91 1008.2
20260905094647 57 127 0.0 0.0 0.00 0.00 0.00 91 1008.2
20260905093646 57 127 0.0 0.0 0.00 0.00 0.00 91 1008.2
20260905092647 57 127 0.0 0.0 0.00 0.00 0.00 91 1008.1
20260905091646 57 127 0.0 0.0 0.00 0.00 0.00 91 1008.1
20260905090647 58 127 0.0 0.0 0.00 0.00 0.00 91 1008.1
20260905085646 58 127 0.0 0.0 0.00 0.00 0.00 91 1008.1
20260905084646 58 127 0.0 0.0 0.00 0.00 0.00 91 1008.1
20260905084041 58 127 0.0 0.0 0.00 0.00 0.00 91 1008.0
20260905083716 58 127 0.0 0.0 0.00 0.00 0.00 91 1008.0
20260905081647 58 127 0.0 0.0 0.00 0.00 0.00 91 1008.0
20260905080644 58 127 0.0 0.0 0.00 0.00 0.00 91 1008.1
20260905075644 58 127 0.0 0.0 0.00 0.00 0.00 91 1008.1
20260905074645 58 127 0.0 0.0 0.00 0.00 0.00 91 1008.1
20260905073642 59 127 0.0 0.0 0.00 0.00 0.00 90 1008.1
20260905072640 59 127 0.0 0.0 0.00 0.00 0.00 90 1008.1
20260905071640 59 127 0.0 0.0 0.00 0.00 0.00 90 1008.1
20260905070643 59 127 0.0 0.0 0.00 0.00 0.00 90 1008.2
20260905065639 59 127 0.0 0.0 0.00 0.00 0.00 90 1008.2
20260905064640 60 127 0.0 0.0 0.00 0.00 0.00 90 1008.2
20260905064124 60 127 0.0 0.0 0.00 0.00 0.00 90 1008.4
20260905062630 60 127 0.0 0.0 0.00 0.00 0.00 90 1008.6
20260905061631 60 127 0.0 0.0 0.00 0.00 0.00 90 1008.6
20260905060630 60 127 0.0 0.0 0.00 0.00 0.00 90 1008.7
20260905055630 60 127 0.0 0.0 0.00 0.01 0.00 90 1008.7
20260905054630 60 127 0.0 0.0 0.00 0.01 0.00 89 1008.7
20260905053629 60 127 0.0 0.0 0.00 0.01 0.00 89 1008.8
20260905052629 61 127 0.0 0.0 0.00 0.01 0.00 89 1008.8
20260905051625 61 127 0.0 0.0 0.00 0.01 0.00 89 1008.8
20260905050627 61 127 0.0 0.0 0.00 0.01 0.00 89 1008.9
20260905045626 61 127 0.0 0.0 0.00 0.01 0.00 89 1008.7
20260905045532 61 127 0.0 0.0 0.00 0.01 0.00 89 1008.7
20260905043626 61 127 0.0 0.0 0.00 0.01 0.00 89 1008.7
20260905043113 62 127 0.0 0.0 0.00 0.01 0.00 88 1008.6
20260905041625 62 127 0.0 0.0 0.00 0.01 0.00 88 1008.6
20260905040627 62 127 0.0 0.0 0.00 0.01 0.00 88 1008.7
20260905040104 62 301 0.0 0.0 0.00 0.01 0.01 88 1008.7
20260905034626 62 127 0.0 0.0 0.00 0.01 0.01 88 1008.7
20260905033624 63 127 0.0 0.0 0.00 0.01 0.01 88 1008.7
20260905032625 63 127 0.0 0.0 0.00 0.01 0.01 88 1008.7
20260905031624 63 301 0.0 0.0 0.00 0.01 0.01 88 1008.7
20260905030626 63 127 0.0 0.0 0.00 0.01 0.01 87 1008.8
20260905030601 64 127 0.0 0.0 0.00 0.01 0.01 87 1008.8
20260905024623 64 127 0.0 0.0 0.00 0.01 0.01 87 1008.8
20260905023624 64 127 0.0 0.0 0.00 0.01 0.01 86 1009.0
20260905023106 64 127 0.0 0.0 0.00 0.01 0.01 86 1009.1
20260905021621 65 127 0.0 0.0 0.00 0.01 0.01 86 1009.1
20260905021102 65 127 0.0 0.0 0.00 0.01 0.01 86 1009.2
20260905015621 65 127 0.0 0.0 0.00 0.01 0.01 85 1009.2
20260905014621 65 127 0.0 0.0 0.00 0.01 0.01 84 1009.2
20260905013620 66 127 0.0 0.0 0.00 0.01 0.01 84 1009.2
20260905012618 66 127 0.0 0.0 0.00 0.01 0.01 83 1009.2
20260905012057 67 127 0.0 0.0 0.00 0.01 0.01 83 1009.2
20260905010619 67 127 0.0 0.0 0.00 0.01 0.01 84 1009.2
20260905005620 68 127 0.0 0.0 0.00 0.01 0.01 83 1009.1
20260905004617 68 127 0.0 0.0 0.00 0.01 0.01 82 1009.1
20260905004549 69 127 0.0 0.0 0.00 0.01 0.01 81 1009.1
20260905002617 69 127 0.0 0.0 0.00 0.01 0.01 81 1009.1
20260905001618 69 127 0.0 0.0 0.00 0.01 0.01 81 1009.1
20260905000617 70 127 0.0 0.0 0.00 0.01 0.01 80 1008.8
20260904235616 71 127 0.0 0.0 0.00 0.01 0.01 80 1008.7
20260904235530 71 127 0.0 0.0 0.00 0.01 0.01 79 1008.7
20260904234100 72 127 0.0 0.0 0.00 0.01 0.01 78 1008.6
20260904232611 72 127 0.0 0.0 0.00 0.01 0.01 78 1008.3
20260904231610 73 127 0.0 0.0 0.00 0.01 0.01 77 1008.3
20260904230611 73 127 0.0 0.0 0.00 0.01 0.01 76 1008.2
20260904225612 74 127 0.0 0.0 0.00 0.01 0.01 76 1008.3
20260904224604 74 127 0.0 0.0 0.00 0.01 0.01 75 1008.3
20260904224046 75 127 0.0 0.0 0.00 0.01 0.01 74 1008.2
20260904222606 75 127 0.0 0.0 0.00 0.01 0.01 72 1008.1
20260904221604 76 127 0.0 0.0 0.00 0.01 0.01 72 1008.1
20260904221050 76 127 0.0 0.0 0.00 0.01 0.01 71 1008.1